EW1315 Weather Reports


Display with metric or nautical units.
time (UTC)temp
F
wind
direction
speed
MPH
gust
MPH
rain 1hr
in
rain 24hr
in
rain mn
in
humidity
%
barometer
mb
20260508024003 50 105 1.0 3.0 0.00 0.00 0.00 75 1012.2
20260508023503 50 107 2.0 3.0 0.00 0.00 0.00 75 1012.2
20260508023003 50 102 1.0 3.0 0.00 0.00 0.00 76 1012.3
20260508022503 50 100 1.0 2.0 0.00 0.00 0.00 76 1012.3
20260508022003 50 104 1.0 2.0 0.00 0.00 0.00 76 1012.4
20260508021503 50 104 1.0 2.0 0.00 0.00 0.00 76 1012.4
20260508021003 50 102 1.0 2.0 0.00 0.00 0.00 76 1012.4
20260508020503 50 104 1.0 2.0 0.00 0.00 0.00 76 1012.3
20260508020003 50 105 1.0 3.0 0.00 0.00 0.00 75 1012.3
20260508015503 50 104 1.0 3.0 0.00 0.00 0.00 75 1012.5
20260508015003 50 107 1.0 3.0 0.00 0.00 0.00 75 1012.4
20260508014503 49 109 1.0 3.0 0.00 0.00 0.00 75 1012.4
20260508014003 49 110 1.0 3.0 0.00 0.00 0.00 75 1012.5
20260508013503 49 106 1.0 2.0 0.00 0.00 0.00 75 1012.2
20260508013004 50 103 1.0 2.0 0.00 0.00 0.00 75 1012.3
20260508012503 49 108 1.0 2.0 0.00 0.00 0.00 75 1012.5
20260508012003 50 110 1.0 3.0 0.00 0.00 0.00 75 1012.5
20260508011503 50 104 1.0 3.0 0.00 0.00 0.00 74 1012.5
20260508011003 50 104 1.0 2.0 0.00 0.00 0.00 74 1012.6
20260508010503 50 109 1.0 2.0 0.00 0.00 0.00 74 1012.4
20260508010213 50 108 1.0 2.0 0.00 0.00 0.00 74 1012.5
20260508005503 50 108 1.0 3.0 0.00 0.00 0.00 73 1012.4
20260508005003 50 113 1.0 3.0 0.00 0.00 0.00 73 1012.4
20260508004503 50 123 1.0 3.0 0.00 0.00 0.00 73 1012.6
20260508004003 50 121 1.0 3.0 0.00 0.00 0.00 73 1012.4
20260508003503 51 110 1.0 4.0 0.00 0.00 0.00 73 1012.5
20260508003004 51 105 1.0 4.0 0.00 0.00 0.00 72 1012.4
20260508002503 51 107 1.0 3.0 0.00 0.00 0.00 72 1012.4
20260508002003 51 108 1.0 3.0 0.00 0.00 0.00 72 1012.3
20260508001503 51 105 1.0 3.0 0.00 0.00 0.00 72 1012.5
20260508001003 51 121 1.0 3.0 0.00 0.00 0.00 72 1012.5
20260508000503 51 128 1.0 3.0 0.00 0.00 0.00 72 1012.7
20260508000003 51 127 1.0 3.0 0.00 0.00 0.00 72 1012.6
20260507235503 51 123 1.0 3.0 0.00 0.00 0.00 72 1012.7
20260507235214 51 116 1.0 2.0 0.00 0.00 0.00 71 1012.6
20260507234503 51 109 1.0 3.0 0.00 0.00 0.00 71 1012.7
20260507234003 51 110 1.0 3.0 0.00 0.00 0.00 71 1012.6
20260507233503 51 113 1.0 2.0 0.00 0.00 0.00 71 1012.7
20260507233003 52 116 1.0 3.0 0.00 0.00 0.00 71 1012.6
20260507232714 52 113 1.0 3.0 0.00 0.00 0.00 71 1012.6
20260507232004 52 114 1.0 3.0 0.00 0.00 0.00 72 1012.6
20260507231503 52 108 1.0 3.0 0.00 0.00 0.00 72 1012.7
20260507231003 52 109 1.0 3.0 0.00 0.00 0.00 73 1012.6
20260507230503 52 110 1.0 3.0 0.00 0.00 0.00 72 1012.6
20260507230008 52 108 1.0 3.0 0.00 0.00 0.00 73 1012.7
20260507225503 52 109 1.0 3.0 0.00 0.00 0.00 74 1012.7
20260507225003 52 111 1.0 3.0 0.00 0.00 0.00 74 1012.5
20260507224504 51 118 1.0 3.0 0.00 0.00 0.00 75 1012.6
20260507224003 51 116 1.0 3.0 0.00 0.00 0.00 78 1012.6
20260507223503 50 96 0.0 3.0 0.00 0.00 0.00 83 1012.6
20260507223003 50 91 0.0 2.0 0.00 0.00 0.00 84 1012.6
20260507222503 50 83 0.0 1.0 0.00 0.00 0.00 84 1012.5
20260507222003 50 78 0.0 2.0 0.00 0.00 0.00 84 1012.5
20260507221503 51 83 0.0 2.0 0.00 0.00 0.00 85 1012.5
20260507221003 51 87 0.0 2.0 0.00 0.00 0.00 85 1012.6
20260507220717 51 92 0.0 2.0 0.00 0.00 0.00 85 1012.5
20260507220003 51 103 0.0 2.0 0.00 0.00 0.00 85 1012.7
20260507215718 51 100 0.0 2.0 0.00 0.00 0.00 85 1012.7
20260507215003 51 103 0.0 2.0 0.00 0.00 0.00 85 1012.8
20260507214504 51 105 0.0 2.0 0.00 0.00 0.00 85 1012.7
20260507214003 51 104 0.0 2.0 0.00 0.00 0.00 85 1012.9
20260507213714 51 108 0.0 2.0 0.00 0.00 0.00 85 1012.8
20260507213003 51 116 1.0 2.0 0.00 0.00 0.00 83 1012.6
20260507212503 51 112 1.0 2.0 0.00 0.00 0.00 84 1012.5
20260507212003 51 108 0.0 2.0 0.00 0.00 0.00 84 1012.6
20260507211503 51 110 1.0 2.0 0.00 0.00 0.00 84 1012.6
20260507211003 51 109 1.0 2.0 0.00 0.00 0.00 84 1012.6
20260507210503 52 104 1.0 2.0 0.00 0.00 0.00 84 1012.5
20260507210004 52 104 0.0 2.0 0.00 0.00 0.00 84 1012.4
20260507205503 52 105 0.0 2.0 0.00 0.00 0.00 84 1012.6
20260507205003 52 106 0.0 2.0 0.00 0.00 0.00 84 1012.5
20260507204503 51 102 0.0 2.0 0.00 0.00 0.00 84 1012.6
20260507204003 52 98 0.0 2.0 0.00 0.00 0.00 84 1012.3
20260507203715 52 100 0.0 2.0 0.00 0.00 0.00 84 1012.5
20260507203003 52 106 0.0 2.0 0.00 0.00 0.00 84 1012.3
20260507202503 52 109 0.0 2.0 0.00 0.00 0.00 84 1012.3
20260507202214 52 108 0.0 2.0 0.00 0.00 0.00 84 1012.2
20260507201503 52 106 0.0 2.0 0.00 0.00 0.00 84 1012.2
20260507201003 52 106 0.0 2.0 0.00 0.00 0.00 83 1012.3
20260507200503 52 95 0.0 2.0 0.00 0.00 0.00 83 1012.3
20260507200003 52 89 0.0 2.0 0.00 0.00 0.00 83 1012.1
20260507195504 53 107 0.0 2.0 0.00 0.00 0.00 83 1012.3
20260507195217 53 111 0.0 2.0 0.00 0.00 0.00 83 1012.0
20260507194715 53 106 0.0 2.0 0.00 0.00 0.00 82 1012.1
20260507194004 53 80 0.0 2.0 0.00 0.00 0.00 81 1012.2
20260507193503 53 76 0.0 2.0 0.00 0.00 0.00 81 1012.0
20260507193003 53 94 0.0 2.0 0.00 0.00 0.00 79 1012.1
20260507192503 53 108 0.0 2.0 0.00 0.00 0.00 78 1012.1
20260507192003 53 105 1.0 2.0 0.00 0.00 0.00 78 1012.1
20260507191503 53 109 1.0 2.0 0.00 0.00 0.00 78 1012.3
20260507191003 53 111 1.0 2.0 0.00 0.00 0.00 80 1012.3
20260507190504 53 111 1.0 2.0 0.00 0.00 0.00 79 1012.1
20260507190004 53 116 1.0 2.0 0.00 0.00 0.00 79 1012.1
20260507185503 53 121 1.0 2.0 0.00 0.00 0.00 79 1012.1
20260507185212 53 123 1.0 2.0 0.00 0.00 0.00 79 1011.9
20260507184715 53 123 1.0 3.0 0.00 0.00 0.00 78 1011.9
20260507184003 53 112 1.0 2.0 0.00 0.00 0.00 78 1011.9
20260507183503 53 124 0.0 2.0 0.00 0.00 0.00 78 1011.7
20260507183003 53 138 1.0 2.0 0.00 0.00 0.00 76 1011.6
20260507182503 54 122 1.0 2.0 0.00 0.00 0.00 77 1011.8
20260507182003 54 139 1.0 3.0 0.00 0.00 0.00 77 1011.6
20260507181503 54 149 1.0 4.0 0.00 0.00 0.00 75 1011.5
20260507181003 55 139 1.0 4.0 0.00 0.00 0.00 73 1011.5
20260507180503 55 135 1.0 3.0 0.00 0.00 0.00 72 1011.6
20260507180003 55 135 1.0 3.0 0.00 0.00 0.00 71 1011.5
20260507175715 55 134 1.0 3.0 0.00 0.00 0.00 70 1011.5
20260507175003 55 138 1.0 2.0 0.00 0.00 0.00 70 1011.6
20260507174716 55 135 1.0 2.0 0.00 0.00 0.00 70 1011.3
20260507174003 55 125 1.0 2.0 0.00 0.00 0.00 70 1011.4
20260507173503 56 118 1.0 2.0 0.00 0.00 0.00 70 1011.3
20260507173004 56 120 1.0 3.0 0.00 0.00 0.00 68 1011.4
20260507172503 56 139 1.0 3.0 0.00 0.00 0.00 68 1011.4
20260507172003 56 153 1.0 3.0 0.00 0.00 0.00 68 1011.4
20260507171714 56 159 1.0 4.0 0.00 0.00 0.00 68 1011.3
20260507171217 56 156 2.0 5.0 0.00 0.00 0.00 69 1011.6
20260507170503 56 155 2.0 5.0 0.00 0.00 0.00 68 1011.6
20260507170003 56 164 2.0 4.0 0.00 0.00 0.00 67 1011.6
20260507165503 56 166 2.0 4.0 0.00 0.00 0.00 67 1011.6
20260507165003 57 163 2.0 5.0 0.00 0.00 0.00 66 1011.5
20260507164503 57 155 2.0 5.0 0.00 0.00 0.00 63 1011.5
20260507164003 57 148 1.0 5.0 0.00 0.00 0.00 62 1011.6
20260507163503 58 149 1.0 4.0 0.00 0.00 0.00 60 1011.7
20260507163003 58 162 2.0 4.0 0.00 0.00 0.00 60 1011.6
20260507162503 58 168 2.0 4.0 0.00 0.00 0.00 59 1011.8
20260507162003 58 161 1.0 4.0 0.00 0.00 0.00 58 1011.7
20260507161503 58 157 1.0 4.0 0.00 0.00 0.00 56 1011.8
20260507161003 58 152 1.0 4.0 0.00 0.00 0.00 55 1011.7
20260507160503 59 155 1.0 4.0 0.00 0.00 0.00 54 1011.7
20260507160003 58 162 1.0 4.0 0.00 0.00 0.00 53 1011.6
20260507155504 59 158 1.0 3.0 0.00 0.00 0.00 52 1011.6
20260507155214 59 162 1.0 3.0 0.00 0.00 0.00 52 1011.5
20260507154504 59 156 1.0 3.0 0.00 0.00 0.00 52 1011.6
20260507154004 59 150 1.0 3.0 0.00 0.00 0.00 52 1011.6
20260507153504 59 151 1.0 2.0 0.00 0.00 0.00 52 1011.5
20260507153003 59 155 1.0 2.0 0.00 0.00 0.00 51 1011.6
20260507152503 59 153 1.0 3.0 0.00 0.00 0.00 51 1011.4
20260507152003 59 145 1.0 3.0 0.00 0.00 0.00 51 1011.6
20260507151503 59 151 1.0 3.0 0.00 0.00 0.00 50 1011.4
20260507151003 59 166 1.0 3.0 0.00 0.00 0.00 51 1011.7
20260507150504 59 171 2.0 4.0 0.00 0.00 0.00 51 1011.6
20260507150004 59 175 2.0 5.0 0.00 0.00 0.00 51 1011.7
20260507145503 60 168 1.0 5.0 0.00 0.00 0.00 51 1011.6
20260507145003 60 163 1.0 3.0 0.00 0.00 0.00 50 1011.5
20260507144713 60 159 1.0 3.0 0.00 0.00 0.00 49 1011.8
20260507144003 60 154 1.0 3.0 0.00 0.00 0.00 49 1011.7
20260507143505 60 149 1.0 4.0 0.00 0.00 0.00 49 1011.7
20260507143003 60 158 1.0 4.0 0.00 0.00 0.00 49 1011.9
20260507142504 60 159 1.0 4.0 0.00 0.00 0.00 49 1011.9
20260507142003 60 162 2.0 5.0 0.00 0.00 0.00 49 1011.8
20260507141503 60 160 2.0 5.0 0.00 0.00 0.00 49 1011.9
20260507141003 60 159 1.0 5.0 0.00 0.00 0.00 48 1011.9
20260507140503 60 163 2.0 4.0 0.00 0.00 0.00 49 1012.0
20260507140003 61 162 2.0 4.0 0.00 0.00 0.00 48 1012.2
20260507135503 61 155 1.0 4.0 0.00 0.00 0.00 48 1012.0
20260507135215 61 148 1.0 3.0 0.00 0.00 0.00 47 1012.0
20260507134503 61 142 1.0 3.0 0.00 0.00 0.00 44 1012.0
20260507134216 61 148 1.0 3.0 0.00 0.00 0.00 45 1011.9
20260507133503 62 170 1.0 5.0 0.00 0.00 0.00 44 1011.8
20260507133212 62 167 2.0 5.0 0.00 0.00 0.00 42 1011.9
20260507132715 62 154 2.0 4.0 0.00 0.00 0.00 42 1011.8
20260507132003 63 150 2.0 6.0 0.00 0.00 0.00 41 1012.0
20260507131503 64 133 1.0 6.0 0.00 0.00 0.00 41 1011.9
20260507131003 63 119 1.0 4.0 0.00 0.00 0.00 39 1011.9
20260507130503 64 148 1.0 4.0 0.00 0.00 0.00 38 1011.8
20260507130215 63 149 1.0 4.0 0.00 0.00 0.00 40 1011.9
20260507125503 62 129 1.0 4.0 0.00 0.00 0.00 40 1011.9
20260507125003 62 120 1.0 4.0 0.00 0.00 0.00 40 1011.9
20260507124503 62 127 1.0 4.0 0.00 0.00 0.00 41 1012.0
20260507124217 64 154 1.0 4.0 0.00 0.00 0.00 40 1012.0
20260507123503 63 146 1.0 3.0 0.00 0.00 0.00 41 1012.1
20260507123003 63 141 1.0 5.0 0.00 0.00 0.00 42 1012.1
20260507122503 63 141 1.0 5.0 0.00 0.00 0.00 41 1011.9
20260507122004 63 152 1.0 7.0 0.00 0.00 0.00 41 1012.2
20260507121503 62 165 2.0 7.0 0.00 0.00 0.00 41 1012.1
20260507121003 64 162 1.0 5.0 0.00 0.00 0.00 40 1012.2
20260507120503 63 126 1.0 3.0 0.00 0.00 0.00 44 1012.4
20260507120004 62 109 1.0 3.0 0.00 0.00 0.00 48 1012.1
20260507115503 64 123 1.0 3.0 0.00 0.00 0.00 44 1012.2
20260507115003 64 158 1.0 5.0 0.00 0.00 0.00 42 1012.4
20260507114503 64 155 1.0 5.0 0.00 0.00 0.00 43 1012.2
20260507114003 62 141 1.0 4.0 0.00 0.00 0.00 42 1012.3
20260507113503 63 139 1.0 4.0 0.00 0.00 0.00 42 1012.4
20260507113214 62 134 1.0 5.0 0.00 0.00 0.00 46 1012.5
20260507112503 62 161 1.0 5.0 0.00 0.00 0.00 44 1012.4
20260507112004 63 164 1.0 4.0 0.00 0.00 0.00 49 1012.4
20260507111504 61 163 1.0 5.0 0.00 0.00 0.00 51 1012.4
20260507111003 61 159 1.0 5.0 0.00 0.00 0.00 51 1012.5
20260507110504 61 144 1.0 3.0 0.00 0.00 0.00 53 1012.4
20260507110003 60 118 1.0 3.0 0.00 0.00 0.00 53 1012.4
20260507105503 58 82 1.0 3.0 0.00 0.00 0.00 56 1012.6
20260507105003 57 106 1.0 3.0 0.00 0.00 0.00 54 1012.5
20260507104504 58 123 1.0 3.0 0.00 0.00 0.00 55 1012.6
20260507104004 59 126 1.0 4.0 0.00 0.00 0.00 56 1012.4
20260507103503 58 109 1.0 4.0 0.00 0.00 0.00 60 1012.6
20260507103214 58 104 1.0 3.0 0.00 0.00 0.00 60 1012.7
20260507102503 56 106 1.0 3.0 0.00 0.00 0.00 63 1012.6
20260507102215 56 108 1.0 3.0 0.00 0.00 0.00 62 1012.8
20260507101503 55 111 2.0 3.0 0.00 0.00 0.00 64 1012.7
20260507101003 55 110 1.0 3.0 0.00 0.00 0.00 66 1012.8
20260507100504 55 117 1.0 2.0 0.00 0.00 0.00 65 1013.0
20260507100003 55 124 1.0 2.0 0.00 0.00 0.00 65 1013.0
20260507095503 54 123 1.0 2.0 0.00 0.00 0.00 66 1012.9
20260507095003 54 126 1.0 3.0 0.00 0.00 0.00 67 1013.1
20260507094504 54 146 1.0 4.0 0.00 0.00 0.00 67 1013.0
20260507094004 54 138 1.0 4.0 0.00 0.00 0.00 68 1012.9
20260507093503 54 114 1.0 2.0 0.00 0.00 0.00 68 1013.2
20260507093003 53 117 1.0 3.0 0.00 0.00 0.00 69 1013.0
20260507092503 53 114 1.0 3.0 0.00 0.00 0.00 69 1012.9
20260507092003 53 106 1.0 2.0 0.00 0.00 0.00 68 1012.9
20260507091504 52 100 1.0 2.0 0.00 0.00 0.00 69 1012.9
20260507091003 51 96 1.0 2.0 0.00 0.00 0.00 71 1013.0
20260507090504 51 119 1.0 3.0 0.00 0.00 0.00 70 1013.0
20260507090004 52 124 1.0 3.0 0.00 0.00 0.00 69 1013.0
20260507085503 51 104 1.0 3.0 0.00 0.00 0.00 72 1013.0
20260507085003 50 97 1.0 2.0 0.00 0.00 0.00 73 1012.9
20260507084717 51 99 1.0 3.0 0.00 0.00 0.00 73 1012.9
20260507084214 50 105 1.0 3.0 0.00 0.00 0.00 74 1012.9
20260507083503 50 108 1.0 3.0 0.00 0.00 0.00 74 1013.0
20260507083215 50 105 1.0 3.0 0.00 0.00 0.00 75 1013.0
20260507082504 50 101 1.0 2.0 0.00 0.00 0.00 76 1012.8
20260507082003 49 101 1.0 3.0 0.00 0.00 0.00 76 1012.8
20260507081503 49 100 1.0 4.0 0.00 0.00 0.00 76 1012.9
20260507081003 49 94 1.0 4.0 0.00 0.00 0.00 77 1012.9
20260507080504 48 92 1.0 2.0 0.00 0.00 0.00 77 1012.9
20260507080213 49 98 1.0 3.0 0.00 0.00 0.00 79 1012.6
20260507075503 48 106 1.0 3.0 0.00 0.00 0.00 78 1012.8
20260507075003 48 105 1.0 3.0 0.00 0.00 0.00 79 1012.8
20260507074503 48 103 1.0 3.0 0.00 0.00 0.00 79 1013.0
20260507074003 48 101 1.0 3.0 0.00 0.00 0.00 80 1012.9
20260507073503 48 100 1.0 3.0 0.00 0.00 0.00 80 1012.8
20260507073216 47 98 1.0 3.0 0.00 0.00 0.00 80 1012.8
20260507072503 47 99 1.0 3.0 0.00 0.00 0.00 81 1013.0
20260507072003 47 98 1.0 3.0 0.00 0.00 0.00 81 1012.7
20260507071503 47 98 1.0 3.0 0.00 0.00 0.00 81 1012.9
20260507071004 47 106 2.0 4.0 0.00 0.00 0.00 82 1012.8
20260507070716 47 106 2.0 4.0 0.00 0.00 0.00 82 1012.8
20260507070007 47 105 1.0 3.0 0.00 0.00 0.00 82 1012.8
20260507065503 46 102 1.0 3.0 0.00 0.00 0.00 82 1012.6
20260507065003 46 102 1.0 3.0 0.00 0.00 0.00 83 1012.6
20260507064503 46 101 1.0 3.0 0.00 0.00 0.00 83 1012.6
20260507064003 46 102 1.0 2.0 0.00 0.00 0.00 84 1012.6
20260507063503 46 109 1.0 2.0 0.00 0.00 0.00 84 1012.6
20260507063003 45 109 1.0 2.0 0.00 0.00 0.00 85 1012.6
20260507062503 45 100 1.0 2.0 0.00 0.00 0.00 85 1012.6
20260507062212 45 100 1.0 2.0 0.00 0.00 0.00 85 1012.5
20260507061504 45 102 1.0 2.0 0.00 0.00 0.00 85 1012.4
20260507061003 45 95 1.0 2.0 0.00 0.00 0.00 86 1012.5
20260507060503 45 97 1.0 3.0 0.00 0.00 0.00 86 1012.6
20260507060003 44 102 1.0 3.0 0.00 0.00 0.00 86 1012.5
20260507055503 44 102 1.0 2.0 0.00 0.00 0.00 86 1012.5
20260507055003 44 106 1.0 2.0 0.00 0.00 0.00 86 1012.6
20260507054504 44 109 1.0 2.0 0.00 0.00 0.00 86 1012.5
20260507054003 44 105 1.0 2.0 0.00 0.00 0.00 86 1012.5
20260507053503 44 104 1.0 2.0 0.00 0.00 0.00 86 1012.6
20260507053003 44 99 1.0 2.0 0.00 0.00 0.00 87 1012.6
20260507052503 44 95 1.0 2.0 0.00 0.00 0.00 87 1012.6
20260507052003 44 99 1.0 2.0 0.00 0.00 0.00 87 1012.6
20260507051503 44 98 1.0 2.0 0.00 0.00 0.00 87 1012.6
20260507051003 44 96 1.0 3.0 0.00 0.00 0.00 87 1012.5
20260507050503 44 102 1.0 3.0 0.00 0.00 0.00 87 1012.6
20260507050003 44 103 1.0 2.0 0.00 0.00 0.00 87 1012.6
20260507045503 44 105 1.0 3.0 0.00 0.00 0.00 87 1012.4
20260507045004 44 106 1.0 3.0 0.00 0.00 0.00 87 1012.4
20260507044503 43 101 2.0 3.0 0.00 0.00 0.00 87 1012.3
20260507044004 43 94 2.0 3.0 0.00 0.00 0.00 87 1012.4
20260507043715 43 92 1.0 3.0 0.00 0.00 0.00 88 1012.3
20260507043003 43 93 1.0 3.0 0.00 0.00 0.00 88 1012.2
20260507042503 43 92 1.0 3.0 0.00 0.00 0.00 88 1012.2
20260507042214 43 92 1.0 3.0 0.00 0.00 0.00 88 1012.2
20260507041503 43 92 1.0 3.0 0.00 0.00 0.00 88 1012.2
20260507041215 43 93 1.0 3.0 0.00 0.00 0.00 88 1012.2
20260507040503 43 96 1.0 2.0 0.00 0.00 0.00 88 1012.1
20260507040003 43 93 1.0 2.0 0.00 0.00 0.00 88 1012.4
20260507035503 43 88 1.0 2.0 0.00 0.00 0.00 88 1012.3
20260507035003 43 92 1.0 2.0 0.00 0.00 0.00 88 1012.2
20260507034503 43 96 1.0 2.0 0.00 0.00 0.00 88 1012.2
20260507034213 43 93 1.0 2.0 0.00 0.00 0.00 88 1012.3
20260507033503 43 95 1.0 2.0 0.00 0.00 0.00 88 1012.4
20260507033003 43 97 1.0 2.0 0.00 0.00 0.00 88 1012.2
20260507032504 43 98 1.0 2.0 0.00 0.00 0.00 88 1012.3
20260507032003 43 96 1.0 2.0 0.00 0.00 0.00 88 1012.4
20260507031712 43 95 1.0 3.0 0.00 0.00 0.00 88 1012.5
20260507031003 43 98 2.0 3.0 0.00 0.00 0.00 88 1012.4
20260507030504 43 99 2.0 3.0 0.00 0.00 0.00 88 1012.6
20260507030003 43 93 2.0 4.0 0.00 0.00 0.00 88 1012.5
20260507025503 43 93 2.0 4.0 0.00 0.00 0.00 87 1012.7
20260507025003 43 98 2.0 4.0 0.00 0.00 0.00 87 1012.6
20260507024715 43 99 2.0 5.0 0.00 0.00 0.00 87 1012.7